Content
SEND FEEDBACK

Daily
Averages
Monthly
Summary
United States of America

ATCO, GEORGIA


Home > North America > United States > Georgia
Elevation: 720 feet     Latitude: 34 13N     Longitude: 084 47W

WEATHER
 
SELECT A DAY
Number of Records: 157,636;   Date Range: 3/22/00 - 9/29/14
 
SHARE

PRINT THIS DATA

[ ← Previous Day ]
WEATHER ALMANAC - JANUARY 23, 2013
[ Next Day → ]
[ °C ]   °F
Weather ElementAverageHighLow
Temperature39.3 °F53.1 °F (3:53 pm)25 °F (1:53 am)
Dewpoint25.7 °F37.9 °F (9:53 pm)14 °F (9:53 am)
Humidity60.5 %80 % (8:53 pm)40 % (12:53 pm)
Barometer30.30 in30.41 in (10:53 am)30.20 in (7:53 pm)
Wind Speed0.7 mph4.6 mph (12:53 pm)

Weather ElementAverage
Visibility9.9 mi
Weather ElementTotal
Precipitation---
Heating Degree Days26 (Base 65)
Averaged from 23 records on January 23, 2013
WEATHER CONDITIONS BREAKOUT
WIND DIRECTION BREAKOUT
WEATHER BY HOUR - JANUARY 23, 2013
[ °C ]   °F
Local TimeTemperatureDewpointHumidityBarometerVisibilityWind DirectionWind SpeedGust SpeedPrecipitationEventsConditions
1:53 AM25.0 °F19.0 °F78 %30.35 in10.0 miCalmClear
2:53 AM25.0 °F19.0 °F78 %30.35 in10.0 miCalmPartly Cloudy
3:53 AM27.0 °F19.9 °F75 %30.35 in10.0 miCalmOvercast
4:53 AM28.0 °F21.0 °F75 %30.35 in8.0 miCalmOvercast
5:53 AM28.9 °F19.9 °F69 %30.35 in10.0 miCalmOvercast
6:53 AM30.0 °F19.0 °F64 %30.37 in10.0 miCalmOvercast
7:53 AM28.9 °F18.0 °F64 %30.38 in10.0 miCalmMostly Cloudy
8:53 AM30.9 °F19.0 °F61 %30.38 in10.0 miCalmOvercast
9:53 AM34.0 °F14.0 °F44 %30.40 in10.0 miCalmOvercast
10:53 AM36.0 °F16.0 °F44 %30.41 in10.0 miCalmOvercast
11:53 AM41.0 °F19.0 °F41 %30.38 in10.0 miVariable3.5 mphScattered Clouds
12:53 PM45.0 °F21.9 °F40 %30.34 in10.0 miVariable4.6 mphClear
1:53 PM48.0 °F26.1 °F42 %30.28 in10.0 miCalmClear
2:53 PM52.0 °F28.0 °F40 %30.25 in10.0 miVariable3.5 mphClear
3:53 PM53.1 °F28.9 °F40 %30.24 in10.0 miVariable4.6 mphClear
4:53 PM53.1 °F30.9 °F43 %30.23 in10.0 miCalmClear
5:53 PM50.0 °F33.1 °F52 %30.22 in10.0 miCalmPartly Cloudy
6:53 PM42.1 °F34.0 °F73 %30.22 in9.0 miCalmClear
7:53 PM41.0 °F34.0 °F76 %30.20 in10.0 miCalmMostly Cloudy
8:53 PM43.0 °F37.0 °F80 %30.20 in10.0 miCalmOvercast
9:53 PM46.0 °F37.9 °F73 %30.20 in10.0 miCalmOvercast
10:53 PM48.9 °F37.9 °F66 %30.20 in10.0 miCalmOvercast
11:53 PM46.0 °F37.9 °F73 %30.20 in10.0 miCalmMostly Cloudy
Hourly data recorded from KVPC, located miles away from Atco, Georgia







STORIES FROM OUR PARTNERS